Location: Borowce
(50.8255°N, 19.6209°E)
Time: 22:23:21
(UTC+00:00)

Cosmos 1400 Rocket - Pass Details

Date: 19 May 2025
Orbit: 484 x 519 km, 81.1° (Epoch: 16 June)

Event Time Altitude Azimuth Distance (km) Brightness Sun altitude
Rises 19:30:57 0° 194° (SSW) 2,558 5.9 -8.2°
Reaches altitude 10° 19:33:04 10° 196° (SSW) 1,677 5.0 -8.4°
Maximum altitude 19:36:44 77° 282° (WNW) 507 2.7 -8.8°
Drops below altitude 10° 19:40:25 10° 10° (N) 1,681 5.9 -9.2°
Sets 19:42:32 0° 12° (NNE) 2,566 6.8 -9.4°
